Watonga, OK

4:43 AM CST on February 12, 2016 (GMT -0600)
Watonga

Weather History for KJWG - November, 2012

Change the Weather History Date:

Wednesday, November 7, 2012

  Actual Average (WUND) Record (WUND)
Temperature  
Mean Temperature 52 °F -  
Max Temperature 70 °F - - (-1)
Min Temperature 35 °F - - (-1)
Degree Days  
Heating Degree Days 12    
Growing Degree Days 2 (Base 50)    
Moisture  
Dew Point 36 °F    
Average Humidity 55    
Maximum Humidity 87    
Minimum Humidity 32    
Precipitation  
Precipitation 0.00 in - - ()
Sea Level Pressure  
Sea Level Pressure 30.12 in    
Wind  
Wind Speed 4 mph (SSE)    
Max Wind Speed 12 mph    
Max Gust Speed 16 mph    
Visibility 10 miles    
Events      
Averages and records for this station are not official NWS values.
T = Trace of Precipitation, MM = Missing Value Source: NWS Daily Summary

Daily Weather History Graph

Daily Weather History Graph

Search for Another Location

Airport or City:

Trip Planner

Search our weather history database for the weather conditions in past years. The results will help you decide how hot, cold, wet, or windy it might be!

Date:

Astronomy

Nov. 07, 2012 Rise Set
Actual Time 7:02 AM CST 5:31 PM CST
Civil Twilight 6:35 AM CST 5:58 PM CST
Nautical Twilight 6:05 AM CST 6:29 PM CST
Astronomical Twilight 5:34 AM CST 6:59 PM CST
Moon 12:10 AM CST (11/7) 1:29 PM CST (11/7)
Length of Visible Light 11h 23m
Length of Day
10h 29m
Last Quarter, 43% of the Moon is Illuminated
Nov 7
Last Quarter
Nov 13
New
Nov 20
First Quarter
Nov 28
Full
Dec 6
Last Quarter

Hourly Weather History & Observations

Time (CST) Temp. Windchill Dew Point Humidity Pressure Visibility Wind Dir Wind Speed Gust Speed Precip Events Conditions
12:15 AM 41.4 °F 39.4 °F 33.6 °F 74% 30.17 in 10.0 mi NNW 3.5 mph - N/A   Clear
12:35 AM 40.3 °F - 32.5 °F 74% 30.17 in 10.0 mi Calm Calm - N/A   Clear
12:55 AM 40.5 °F 38.4 °F 33.1 °F 75% 30.17 in 10.0 mi WNW 3.5 mph - N/A   Clear
1:15 AM 43.0 °F 41.3 °F 34.0 °F 71% 30.17 in 10.0 mi NNW 3.5 mph - N/A   Clear
1:35 AM 42.1 °F - 34.3 °F 74% 30.17 in 10.0 mi Calm Calm - N/A   Clear
1:55 AM 39.7 °F 35.6 °F 33.8 °F 79% 30.18 in 10.0 mi SW 5.8 mph - N/A   Clear
2:15 AM 41.0 °F - 34.0 °F 76% 30.18 in 10.0 mi Calm Calm - N/A   Clear
2:55 AM 39.2 °F 35.9 °F 32.9 °F 78% 30.18 in 10.0 mi NNW 4.6 mph - N/A   Clear
3:15 AM 39.4 °F - 32.0 °F 75% 30.17 in 10.0 mi Calm Calm - N/A   Clear
3:35 AM 39.6 °F 36.3 °F 32.9 °F 77% 30.17 in 10.0 mi WNW 4.6 mph - N/A   Clear
3:55 AM 38.5 °F - 32.7 °F 80% 30.17 in 10.0 mi Calm Calm - N/A   Clear
4:15 AM 39.0 °F 36.8 °F 32.9 °F 79% 30.17 in 10.0 mi WNW 3.5 mph - N/A   Clear
4:35 AM 36.7 °F - 32.0 °F 83% 30.18 in 10.0 mi Calm Calm - N/A   Clear
4:55 AM 39.2 °F - 32.7 °F 78% 30.18 in 10.0 mi Calm Calm - N/A   Clear
5:15 AM 39.0 °F 36.8 °F 32.5 °F 78% 30.19 in 10.0 mi West 3.5 mph - N/A   Clear
5:35 AM 38.1 °F - 32.7 °F 81% 30.19 in 10.0 mi Calm Calm - N/A   Clear
5:55 AM 36.0 °F 33.3 °F 32.0 °F 86% 30.19 in 10.0 mi West 3.5 mph - N/A   Clear
6:15 AM 35.4 °F 32.6 °F 31.8 °F 87% 30.19 in 10.0 mi NNW 3.5 mph - N/A   Clear
6:35 AM 35.6 °F - 32.0 °F 87% 30.19 in 10.0 mi Calm Calm - N/A   Clear
6:55 AM 36.9 °F - 32.5 °F 84% 30.20 in 10.0 mi Calm Calm - N/A   Clear
7:15 AM 36.3 °F 33.7 °F 32.2 °F 85% 30.21 in 10.0 mi NE 3.5 mph - N/A   Clear
7:35 AM 37.4 °F - 32.0 °F 81% 30.21 in 10.0 mi Calm Calm - N/A   Clear
7:55 AM 39.0 °F - 34.2 °F 83% 30.21 in 10.0 mi Calm Calm - N/A   Clear
8:15 AM 41.5 °F - 35.2 °F 78% 30.22 in 10.0 mi Calm Calm - N/A   Clear
8:35 AM 44.6 °F - 36.0 °F 72% 30.21 in 10.0 mi Calm Calm - N/A   Clear
8:55 AM 48.4 °F - 37.6 °F 66% 30.21 in 10.0 mi Calm Calm - N/A   Clear
9:15 AM 55.4 °F - 33.3 °F 43% 30.21 in 10.0 mi East 4.6 mph - N/A   Clear
9:35 AM 56.8 °F - 33.3 °F 41% 30.21 in 10.0 mi Calm Calm - N/A   Clear
10:15 AM 59.5 °F - 32.5 °F 36% 30.20 in 10.0 mi SSE 4.6 mph - N/A   Clear
10:35 AM 60.8 °F - 32.4 °F 34% 30.20 in 10.0 mi SE 5.8 mph - N/A   Clear
10:55 AM 61.3 °F - 34.0 °F 36% 30.20 in 10.0 mi SSE 5.8 mph - N/A   Clear
11:15 AM 62.8 °F - 33.6 °F 34% 30.19 in 10.0 mi SE 6.9 mph - N/A   Clear
11:35 AM 63.7 °F - 34.5 °F 34% 30.18 in 10.0 mi SSE 5.8 mph - N/A   Clear
11:55 AM 64.4 °F - 35.1 °F 34% 30.16 in 10.0 mi SE 5.8 mph - N/A   Clear
12:15 PM 65.5 °F - 36.3 °F 34% 30.15 in 10.0 mi South 8.1 mph - N/A   Clear
12:35 PM 65.7 °F - 36.7 °F 34% 30.13 in 10.0 mi SSE 6.9 mph - N/A   Clear
12:55 PM 66.9 °F - 37.0 °F 33% 30.12 in 10.0 mi SSE 5.8 mph - N/A   Clear
1:15 PM 68.5 °F - 38.5 °F 33% 30.11 in 10.0 mi SSE 4.6 mph - N/A   Clear
1:35 PM 68.9 °F - 38.5 °F 33% 30.09 in 10.0 mi South 4.6 mph - N/A   Clear
1:55 PM 69.4 °F - 39.0 °F 33% 30.09 in 10.0 mi SSE 6.9 mph - N/A   Clear
2:15 PM 70.2 °F - 39.2 °F 32% 30.08 in 10.0 mi SSE 8.1 mph - N/A   Clear
2:35 PM 70.7 °F - 39.2 °F 32% 30.07 in 10.0 mi SE 11.5 mph - N/A   Clear
2:55 PM 70.7 °F - 39.4 °F 32% 30.07 in 10.0 mi SE 10.4 mph 16.1 mph N/A   Clear
3:15 PM 70.7 °F - 39.6 °F 32% 30.06 in 10.0 mi SSE 10.4 mph - N/A   Clear
3:35 PM 70.9 °F - 39.2 °F 32% 30.06 in 10.0 mi SE 10.4 mph - N/A   Clear
3:55 PM 70.2 °F - 39.4 °F 33% 30.05 in 10.0 mi South 10.4 mph - N/A   Clear
4:15 PM 69.4 °F - 39.0 °F 33% 30.05 in 10.0 mi SSE 11.5 mph - N/A   Clear
4:35 PM 68.9 °F - 39.4 °F 34% 30.05 in 10.0 mi SSE 8.1 mph - N/A   Clear
4:55 PM 68.2 °F - 39.4 °F 35% 30.04 in 10.0 mi SSE 11.5 mph - N/A   Clear
5:15 PM 66.7 °F - 39.2 °F 36% 30.04 in 10.0 mi SE 9.2 mph - N/A   Clear
5:35 PM 64.8 °F - 38.5 °F 38% 30.04 in 10.0 mi SE 8.1 mph - N/A   Clear
5:55 PM 62.8 °F - 37.8 °F 40% 30.04 in 10.0 mi SE 6.9 mph - N/A   Clear
6:15 PM 61.5 °F - 37.6 °F 41% 30.05 in 10.0 mi SE 6.9 mph - N/A   Clear
6:35 PM 59.9 °F - 37.4 °F 43% 30.05 in 10.0 mi SE 5.8 mph - N/A   Clear
6:55 PM 58.8 °F - 37.4 °F 45% 30.05 in 10.0 mi SE 6.9 mph - N/A   Clear
7:15 PM 57.9 °F - 37.0 °F 46% 30.05 in 10.0 mi SE 6.9 mph - N/A   Clear
7:35 PM 57.4 °F - 36.9 °F 46% 30.05 in 10.0 mi SE 8.1 mph - N/A   Clear
7:55 PM 56.5 °F - 36.9 °F 48% 30.04 in 10.0 mi SE 6.9 mph - N/A   Clear
8:15 PM 55.9 °F - 36.9 °F 49% 30.04 in 10.0 mi SSE 6.9 mph - N/A   Clear
8:35 PM 55.0 °F - 36.7 °F 50% 30.04 in 10.0 mi SSE 6.9 mph - N/A   Clear
8:55 PM 55.4 °F - 36.5 °F 49% 30.04 in 10.0 mi SSE 10.4 mph - N/A   Clear
9:15 PM 55.8 °F - 36.5 °F 48% 30.04 in 10.0 mi SSE 10.4 mph - N/A   Clear
9:35 PM 55.0 °F - 36.3 °F 49% 30.04 in 10.0 mi SSE 9.2 mph - N/A   Clear
9:55 PM 54.0 °F - 36.1 °F 51% 30.04 in 10.0 mi SSE 6.9 mph - N/A   Clear
10:15 PM 52.2 °F - 36.1 °F 54% 30.03 in 10.0 mi SSE 6.9 mph - N/A   Clear
10:35 PM 52.0 °F - 36.5 °F 56% 30.03 in 10.0 mi SSE 5.8 mph - N/A   Clear
10:55 PM 52.7 °F - 36.5 °F 54% 30.02 in 10.0 mi SSE 8.1 mph - N/A   Clear
11:15 PM 52.9 °F - 36.5 °F 54% 30.02 in 10.0 mi SSE 8.1 mph - N/A   Clear
11:35 PM 53.4 °F - 36.5 °F 53% 30.01 in 10.0 mi SSE 9.2 mph - N/A   Clear
11:55 PM 53.8 °F - 36.5 °F 52% 30.01 in 10.0 mi SSE 8.1 mph - N/A   Clear